Miscellaneous Local Product
Issued by NWS Hastings, NE

Home | Current Version | Previous Version | Text Only | Print | Product List | Glossary Off
Versions: 1 2 3 4 5 6 7 8 9 10 11 12 13 14 15 16 17 18 19 20 21 22 23 24 25 26 27 28 29 30 31 32 33 34 35 36 37 38 39 40 41 42 43 44 45 46 47 48 49 50

000
AXUS43 KGID 191202
MISGRI

GID CWA HOURLY WEATHER ROUNDUP
NATIONAL WEATHER SERVICE HASTINGS NE
700 AM CDT FRI SEP 19 2014

NOTE: "FAIR" INDICATES FEW OR NO CLOUDS BELOW 12,000 FEET WITH NO
SIGNIFICANT WEATHER AND/OR OBSTRUCTIONS TO VISIBILITY.

...SOUTH CENTRAL NEBRASKA...

CITY           SKY/WX    TMP DP  RH WIND       PRES   REMARKS
GRAND ISLAND   CLEAR     64  61  90 S12       29.89R
HASTINGS       CLEAR     63  59  87 S9        29.90R
KEARNEY        CLEAR     61  57  88 S13       29.89S
ORD            PTCLDY    63  61  93 S9        29.83F
YORK           CLOUDY    64  63  94 S12       29.91R
AURORA         CLOUDY    64  63  97 S14       29.90R
LEXINGTON      CLEAR     60  59  96 E5        29.88S
HOLDREGE       CLEAR     60  58  94 S7        29.90S
HEBRON         PTCLDY    64  61  90 S10       29.93R

...NEBRASKA PANHANDLE...

CITY           SKY/WX    TMP DP  RH WIND       PRES   REMARKS
CHADRON        PTCLDY    60  53  77 SW3       29.83S
ALLIANCE       PTCLDY    51  48  89 CALM      29.85R
SCOTTSBLUFF    PTCLDY    60  51  72 W12       29.89R
SIDNEY         CLEAR     59  49  69 SW9       29.90R

...WESTERN AND NORTH CENTRAL NEBRASKA...

CITY           SKY/WX    TMP DP  RH WIND       PRES   REMARKS
VALENTINE      CLEAR     59  58  96 S9        29.79R
AINSWORTH      PTCLDY    61  60  98 SW8G17    29.80R
ONEILL         PTCLDY    65  64  95 S13G18    29.80S
BROKEN BOW     CLEAR     63  60  90 S10       29.85S
IMPERIAL       CLEAR     60  55  83 S7        29.88R
NORTH PLATTE   CLEAR     55  54  96 CALM      29.87R
MCCOOK         FOG       54  54 100 E3        29.89S VSB 1/2

...EASTERN NEBRASKA...

CITY           SKY/WX    TMP DP  RH WIND       PRES   REMARKS
NORFOLK        MOCLDY    64  62  93 S14       29.85F
SO SIOUX CITY  CLOUDY    63  61  93 S10       29.87F
TEKAMAH        CLOUDY    64  61  90 S15       29.90F
ALBION         CLOUDY    64  61  93 S13       29.86F
OMAHA EPPLEY   CLOUDY    63  60  90 S16       29.94S FOG
OFFUTT AFB     CLOUDY    62  62 100 SE10      29.95R
MILLARD        CLOUDY    64  61  91 SE9       29.94S FOG
LINCOLN        CLEAR     63  61  93 S10       29.93R
NEBRASKA CITY  CLOUDY    61  61  97 S12       29.96F FOG
BEATRICE       PTCLDY    63  61  95 S10       29.94S
FALLS CITY     CLOUDY    63  62  97 SE9       29.98S FOG

...NORTHERN KANSAS...

CITY           SKY/WX    TMP DP  RH WIND       PRES   REMARKS
GOODLAND       CLEAR     62  59  90 SW14      29.94S
HILL CITY      CLEAR     62  59  90 S5        29.91S
NORTON         SUNNY     61  55  82 S6        29.89
PHILLIPSBURG   CLEAR     61  61 100 SE7       29.91R
SMITH CENTER   CLEAR     61  59  94 SE9       29.93R
BELOIT         CLEAR     63  63 100 SE10      29.92S
HAYS           CLEAR     63  55  77 S9        29.94R
RUSSELL        CLEAR     64  61  90 S12       29.93R
CONCORDIA      CLEAR     63  63 100 S12       29.94R
SALINA         CLEAR     63  61  93 S6        29.95S
TOPEKA         CLOUDY    64  63  96 SE7       30.00R



USA.gov is the U.S. government's official web portal to all federal, state and local government web resources and services.